When you browse on this site, cookies collect data to enhance your experience and personalize the content and advertising you see.
Visit our Privacy Policy to learn more. By continuing to use the site, you agree to this use of cookies and data.
  • In Österreich
  • Länderverzeichnis
  • Für 7 Tage
  • Wassertemperatur
  • Satellitenkarten
  • Wetterkarte
  • News
  • Widgets
  • user-avatar
    Anmelden

    Stündliche Wetter Oran

    Heute, 22 April, Montag

    Zeit Temperatur Niederschläge Wind Luftdruck Luftfeuchtigkeit
    00:00 +14°C° 0 mm 7 m/S 742 mmHg 88%
    01:00 +14°C° 0.1 mm 7 m/S 742 mmHg 88%
    02:00 +12°C° 0.1 mm 7 m/S 742 mmHg 89%
    03:00 +12°C° 0.1 mm 7 m/S 742 mmHg 89%
    04:00 +12°C° 0 mm 7 m/S 742 mmHg 87%
    05:00 +12°C° 0 mm 7 m/S 742 mmHg 85%
    06:00 +12°C° 0 mm 7 m/S 742 mmHg 83%
    07:00 +13°C° 0.2 mm 8 m/S 742 mmHg 79%
    08:00 +15°C° 0.2 mm 9 m/S 742 mmHg 75%
    09:00 +14°C° 0.2 mm 10 m/S 742 mmHg 72%
    10:00 +17°C° 0.1 mm 10 m/S 742 mmHg 67%
    11:00 +18°C° 0.1 mm 10 m/S 742 mmHg 61%
    12:00 +19°C° 0 mm 10 m/S 742 mmHg 56%
    13:00 +19°C° 0 mm 10 m/S 742 mmHg 55%
    14:00 +19°C° 0 mm 10 m/S 742 mmHg 54%
    15:00 +19°C° 0 mm 9 m/S 742 mmHg 53%
    16:00 +18°C° 0 mm 8 m/S 742 mmHg 55%
    17:00 +18°C° 0 mm 8 m/S 742 mmHg 58%
    18:00 +17°C° 0 mm 7 m/S 742 mmHg 60%
    19:00 +17°C° 0 mm 6 m/S 742 mmHg 64%
    20:00 +16°C° 0 mm 6 m/S 742 mmHg 67%
    21:00 +16°C° 0 mm 5 m/S 743 mmHg 71%
    22:00 +15°C° 0.1 mm 5 m/S 742 mmHg 71%
    23:00 +15°C° 0.1 mm 5 m/S 742 mmHg 72%

    Morgen, 23 April, Dienstag

    Zeit Temperatur Niederschläge Wind Luftdruck Luftfeuchtigkeit
    00:00 +15°C° 0.1 mm 5 m/S 742 mmHg 73%
    01:00 +15°C° 0 mm 5 m/S 742 mmHg 72%
    02:00 +14°C° 0 mm 5 m/S 742 mmHg 71%
    03:00 +14°C° 0 mm 4 m/S 742 mmHg 70%
    04:00 +14°C° 0 mm 4 m/S 742 mmHg 68%
    05:00 +14°C° 0 mm 4 m/S 742 mmHg 66%
    06:00 +14°C° 0 mm 3 m/S 742 mmHg 64%
    07:00 +17°C° 0 mm 4 m/S 742 mmHg 58%
    08:00 +19°C° 0 mm 5 m/S 742 mmHg 52%
    09:00 +21°C° 0 mm 6 m/S 742 mmHg 46%
    10:00 +23°C° 0 mm 7 m/S 742 mmHg 42%
    11:00 +24°C° 0 mm 7 m/S 742 mmHg 39%
    12:00 +26°C° 0 mm 8 m/S 742 mmHg 35%
    13:00 +23°C° 0 mm 8 m/S 742 mmHg 44%
    14:00 +22°C° 0 mm 9 m/S 742 mmHg 53%
    15:00 +19°C° 0 mm 9 m/S 742 mmHg 62%
    16:00 +17°C° 0.4 mm 8 m/S 743 mmHg 67%
    17:00 +16°C° 0.4 mm 8 m/S 743 mmHg 72%
    18:00 +14°C° 0.4 mm 7 m/S 744 mmHg 78%
    19:00 +14°C° 1.3 mm 7 m/S 745 mmHg 79%
    20:00 +12°C° 1.3 mm 7 m/S 745 mmHg 79%
    21:00 +13°C° 1.3 mm 6 m/S 746 mmHg 80%
    22:00 +13°C° 0.7 mm 6 m/S 747 mmHg 80%
    23:00 +13°C° 0.7 mm 6 m/S 747 mmHg 81%

    übermorgen, 24 April, Mittwoch

    Zeit Temperatur Niederschläge Wind Luftdruck Luftfeuchtigkeit
    00:00 +13°C° 0.7 mm 5 m/S 748 mmHg 81%
    01:00 +12°C° 0.3 mm 5 m/S 748 mmHg 81%
    02:00 +12°C° 0.3 mm 5 m/S 748 mmHg 81%
    03:00 +12°C° 0.3 mm 5 m/S 748 mmHg 82%
    04:00 +12°C° 0.1 mm 4 m/S 748 mmHg 82%
    05:00 +12°C° 0.1 mm 4 m/S 748 mmHg 81%
    06:00 +12°C° 0.1 mm 4 m/S 749 mmHg 81%
    07:00 +13°C° 0 mm 4 m/S 749 mmHg 74%
    08:00 +15°C° 0 mm 4 m/S 750 mmHg 68%
    09:00 +17°C° 0 mm 4 m/S 750 mmHg 61%
    10:00 +18°C° 0 mm 4 m/S 750 mmHg 56%
    11:00 +18°C° 0 mm 4 m/S 750 mmHg 52%
    12:00 +19°C° 0 mm 4 m/S 750 mmHg 48%
    13:00 +20°C° 0 mm 4 m/S 750 mmHg 47%
    14:00 +20°C° 0 mm 4 m/S 750 mmHg 46%
    15:00 +20°C° 0 mm 4 m/S 750 mmHg 46%
    16:00 +19°C° 0 mm 3 m/S 750 mmHg 47%
    17:00 +19°C° 0 mm 2 m/S 750 mmHg 49%
    18:00 +19°C° 0 mm 1 m/S 750 mmHg 51%
    19:00 +18°C° 0 mm 1 m/S 750 mmHg 55%
    20:00 +16°C° 0 mm 1 m/S 751 mmHg 59%
    21:00 +15°C° 0 mm 1 m/S 751 mmHg 63%
    22:00 +15°C° 0 mm 1 m/S 751 mmHg 64%
    23:00 +15°C° 0 mm 1 m/S 751 mmHg 64%

    25 April, Donnerstag

    Zeit Temperatur Niederschläge Wind Luftdruck Luftfeuchtigkeit
    00:00 +15°C° 0 mm 1 m/S 751 mmHg 65%
    01:00 +14°C° 0 mm 2 m/S 751 mmHg 64%
    02:00 +14°C° 0 mm 2 m/S 751 mmHg 63%
    03:00 +14°C° 0 mm 2 m/S 751 mmHg 62%
    04:00 +14°C° 0 mm 2 m/S 751 mmHg 62%
    05:00 +15°C° 0 mm 2 m/S 751 mmHg 62%
    06:00 +15°C° 0 mm 2 m/S 751 mmHg 61%
    07:00 +16°C° 0 mm 2 m/S 752 mmHg 56%
    08:00 +18°C° 0 mm 2 m/S 752 mmHg 51%
    09:00 +20°C° 0 mm 2 m/S 752 mmHg 46%
    10:00 +21°C° 0 mm 2 m/S 752 mmHg 43%
    11:00 +24°C° 0 mm 2 m/S 752 mmHg 40%
    12:00 +25°C° 0 mm 3 m/S 752 mmHg 37%
    13:00 +25°C° 0 mm 3 m/S 752 mmHg 37%
    14:00 +25°C° 0 mm 4 m/S 752 mmHg 37%
    15:00 +25°C° 0 mm 5 m/S 751 mmHg 37%
    16:00 +23°C° 0 mm 4 m/S 751 mmHg 39%
    17:00 +22°C° 0 mm 4 m/S 752 mmHg 42%
    18:00 +21°C° 0 mm 4 m/S 752 mmHg 45%
    19:00 +20°C° 0 mm 4 m/S 753 mmHg 49%
    20:00 +19°C° 0 mm 4 m/S 754 mmHg 54%
    21:00 +17°C° 0 mm 5 m/S 754 mmHg 58%
    22:00 +17°C° 0 mm 5 m/S 755 mmHg 60%
    23:00 +16°C° 0 mm 5 m/S 755 mmHg 62%

    26 April, Freitag

    Zeit Temperatur Niederschläge Wind Luftdruck Luftfeuchtigkeit
    00:00 +16°C° 0 mm 5 m/S 755 mmHg 64%
    01:00 +16°C° 0 mm 5 m/S 755 mmHg 66%
    02:00 +16°C° 0 mm 5 m/S 755 mmHg 68%
    03:00 +15°C° 0 mm 5 m/S 755 mmHg 71%
    04:00 +15°C° 0 mm 4 m/S 755 mmHg 71%
    05:00 +15°C° 0 mm 4 m/S 756 mmHg 72%
    06:00 +15°C° 0 mm 4 m/S 756 mmHg 73%
    07:00 +17°C° 0 mm 4 m/S 756 mmHg 68%
    08:00 +18°C° 0 mm 4 m/S 757 mmHg 62%
    09:00 +20°C° 0 mm 4 m/S 757 mmHg 57%
    10:00 +20°C° 0 mm 4 m/S 757 mmHg 54%
    11:00 +21°C° 0 mm 4 m/S 757 mmHg 51%
    12:00 +22°C° 0 mm 4 m/S 757 mmHg 48%
    13:00 +22°C° 0 mm 4 m/S 757 mmHg 47%
    14:00 +22°C° 0 mm 4 m/S 756 mmHg 47%
    15:00 +22°C° 0 mm 3 m/S 756 mmHg 46%
    16:00 +21°C° 0 mm 3 m/S 756 mmHg 50%
    17:00 +20°C° 0 mm 4 m/S 756 mmHg 53%
    18:00 +19°C° 0 mm 4 m/S 757 mmHg 57%
    19:00 +19°C° 0 mm 4 m/S 757 mmHg 61%
    20:00 +18°C° 0 mm 3 m/S 758 mmHg 65%
    21:00 +17°C° 0 mm 3 m/S 758 mmHg 69%
    22:00 +16°C° 0 mm 3 m/S 758 mmHg 71%
    23:00 +16°C° 0 mm 3 m/S 758 mmHg 72%

    27 April, Samstag

    Zeit Temperatur Niederschläge Wind Luftdruck Luftfeuchtigkeit
    00:00 +16°C° 0 mm 2 m/S 758 mmHg 74%
    01:00 +15°C° 0 mm 2 m/S 758 mmHg 74%
    02:00 +14°C° 0 mm 3 m/S 758 mmHg 74%
    03:00 +14°C° 0 mm 3 m/S 758 mmHg 75%
    04:00 +14°C° 0 mm 3 m/S 758 mmHg 75%
    05:00 +14°C° 0 mm 4 m/S 758 mmHg 74%
    06:00 +14°C° 0 mm 4 m/S 758 mmHg 74%
    07:00 +16°C° 0 mm 5 m/S 758 mmHg 67%
    08:00 +17°C° 0 mm 5 m/S 758 mmHg 59%
    09:00 +20°C° 0 mm 6 m/S 759 mmHg 52%
    10:00 +20°C° 0 mm 7 m/S 759 mmHg 50%
    11:00 +21°C° 0 mm 7 m/S 758 mmHg 48%
    12:00 +22°C° 0 mm 7 m/S 758 mmHg 46%
    13:00 +22°C° 0 mm 8 m/S 758 mmHg 48%
    14:00 +22°C° 0 mm 8 m/S 757 mmHg 49%
    15:00 +22°C° 0 mm 8 m/S 757 mmHg 50%
    16:00 +21°C° 0 mm 8 m/S 757 mmHg 54%
    17:00 +20°C° 0 mm 7 m/S 757 mmHg 57%
    18:00 +18°C° 0 mm 7 m/S 757 mmHg 61%
    19:00 +17°C° 0 mm 6 m/S 757 mmHg 64%
    20:00 +16°C° 0 mm 6 m/S 758 mmHg 67%
    21:00 +15°C° 0 mm 5 m/S 758 mmHg 70%
    22:00 +15°C° 0 mm 5 m/S 758 mmHg 72%
    23:00 +15°C° 0 mm 4 m/S 758 mmHg 74%
    Mehr zeigen